Regional Weather Roundup
Issued by NWS

Home | Current Version | Previous Version | Text Only | Print | Product List | Glossary On
Versions: 1 2 3 4 5 6 7 8 9 10 11 12 13 14 15 16 17 18 19 20 21 22 23 24 25 26 27 28 29 30 31 32 33 34 35 36 37 38 39 40 41 42 43 44 45 46 47 48 49 50
000
ASUS43 KDTX 280710
RWRMI
MICHIGAN HOURLY REGIONAL WEATHER ROUNDUP
NATIONAL WEATHER SERVICE DETROIT/PONTIAC MI
300 AM EDT SUN AUG 28 2016

NOTE: "FAIR" INDICATES FEW OR NO CLOUDS BELOW 12,000 FEET WITH NO
SIGNIFICANT WEATHER AND/OR OBSTRUCTION TO VISIBILITY.

MIZ047>049-052>055-059>063-066>070-074>076-081>083-280800-
SOUTHEAST LOWER MICHIGAN

CITY           SKY/WX    TMP DP  RH WIND       PRES   REMARKS
ADRIAN         FOG       70  70 100 CALM      30.14S VSB 1/4
ALMA           PTCLDY    70  70 100 SW8       30.11R FOG
ANN ARBOR      CLOUDY    72  72 100 SW5       30.13R FOG
BAD AXE        CLOUDY    70  70 100 S8        30.11F FOG
CARO           MOCLDY    70  69  98 S3        30.10S FOG
DETROIT CITY   CLOUDY    71  71 100 W3        30.12F FOG
DETROIT        FOG       70  70 100 W3        30.14R VSB 1/2
FLINT          PTCLDY    74  70  87 S7        30.12S
GROSSE ILE     PTCLDY    71  70  97 CALM      30.11S FOG
HILLSDALE      CLOUDY    70  69  96 CALM      30.15R FOG
HOWELL         CLOUDY    72  71  97 CALM      30.13S FOG

CITY           SKY/WX    TMP DP  RH WIND       PRES   REMARKS
JACKSON        CLEAR     70  70 100 SW5       30.14R
LAMBERTVILLE   FOG       68  67  94 CALM      30.13S VSB 1/4
LANSING        CLOUDY    72  69  90 SW3       30.12R
LAPEER         CLOUDY    70  69  97 S5        30.13S
MASON          PTCLDY    70  70 100 SE5       30.12S FOG
MONROE         FOG       67  67 100 CALM      30.12S VSB 1/4
MT. CLEMENS    CLOUDY    68  68 100 W2        30.11R
PONTIAC        CLOUDY    72  70  93 SW5       30.13R FOG
PORT HURON     FOG       64  64 100 CALM      30.13S VSB 1/2
TRI CITIES     MOCLDY    71  71 100 S8        30.10S FOG
MIDLAND        CLOUDY    71  71  99 W3        30.09S
TROY           CLOUDY    73  70  91 SW5       30.15R FOG
SAGINAW HB     MOCLDY    72  70  94 S6        30.09S
$$
MIZ043>046-050>051-056>058-064>065-071>073-077>080-280800-
SOUTHWEST LOWER MICHIGAN

CITY           SKY/WX    TMP DP  RH WIND       PRES   REMARKS
BATTLE CREEK   CLOUDY    70  70 100 SW7       30.13S
BENTON HARBOR  CLOUDY    72  69  90 CALM      30.10S FOG
BIG RAPIDS     CLOUDY    71  70  97 CALM      30.10S
COLDWATER      CLOUDY    70  70 100 CALM      30.13F
FREMONT        MOCLDY    68  67  98 CALM      30.10R FOG
HOLLAND        CLOUDY    74  72  93 W5        30.10S
GRAND RAPIDS   CLOUDY    73  70  90 SW6       30.11R
IONIA          FAIR      71  69  95 SW3       30.10R
KALAMAZOO      CLOUDY    73  70  90 S5        30.12S
LUDINGTON      CLOUDY    69  68  98 W5        30.10R
MARSHALL       PTCLDY    72  72 100 S5        30.13R
MOUNT PLEASANT CLOUDY    72  71  97 SW3       30.09F
MUSKEGON       CLOUDY    74  71  91 NW6       30.10R
SOUTH HAVEN    PTCLDY    77  75  95 CALM      30.10S
$$
MIZ016>042-280800-
NORTHERN LOWER MICHIGAN

CITY           SKY/WX    TMP DP  RH WIND       PRES   REMARKS
ALPENA         CLOUDY    69  66  90 S7        30.07R
BEAVER ISLAND  CLOUDY    66  65  97 W6        30.05R
BELLAIRE       CLOUDY    70  68  93 CALM      30.06R
CADILLAC       CLOUDY    69  67  96 SW5       30.10S
CHARLEVOIX     MOCLDY    68  68  99 SW7       30.08R
FRANKFORT      CLOUDY    69  66  89 W8        30.08R
GAYLORD        CLOUDY    69  65  86 SW9       30.08S
GRAYLING       CLOUDY    70  68  95 SW5       30.10S
HARBOR SPRINGS CLOUDY    69  68  96 SW9G16    30.04S
HOUGHTON LAKE  TSTM      70  68  93 W12G21    30.10S VSB 1
MANISTEE       CLOUDY    70  66  88 W9        30.09R
OSCODA         CLOUDY    71  70  97 S6        30.08R
PELLSTON       CLOUDY    69  67  93 W3        30.04S
ROGERS CITY    CLOUDY    69  66  92 SW6       30.05S
TRAVERSE CITY  CLOUDY    70  67  90 CALM      30.07R
$$
MIZ007>008-015-280800-
EASTERN UPPER MICHIGAN

CITY           SKY/WX    TMP DP  RH WIND       PRES   REMARKS
KINROSS        CLOUDY    66  66 100 S5        30.03S FOG
MACKINAC ISLAN CLOUDY    68  68 100 SW6       30.03S
NEWBERRY       FOG       62  61  97 W5        30.04R VSB 1
S. S. MARIE    CLOUDY    67  66  97 S3        30.02S
$$
MIZ004>006-011>014-085-280800-
CENTRAL UPPER MICHIGAN

CITY           SKY/WX    TMP DP  RH WIND       PRES   REMARKS
MANISTIQUE     CLOUDY    63  61  92 W3        30.06R
ESCANABA       CLOUDY    63  62  97 W5        30.08R
MENOMINEE      CLOUDY   N/A N/A N/A CALM      30.09R
SAWYER-GWINN   PTCLDY    60  58  94 SW3       30.07F
$$
MIZ001>003-009>011-084-280800-
WESTERN UPPER MICHIGAN

CITY           SKY/WX    TMP DP  RH WIND       PRES   REMARKS
IRON MOUNTAIN  CLOUDY    63  59  87 S3        30.07S
HOUGHTON       CLOUDY    63  60  90 S3        30.05S
IRONWOOD       CLOUDY    61  61 100 SW6       30.08S
$$

ABBREVIATIONS USED IN REMARKS
   TC - TEMPERATURE IN CELSIUS
  WCI - WIND CHILL INDEX
   HX - HEAT INDEX
  VSB - VISIBILITY





USA.gov is the U.S. government's official web portal to all federal, state and local government web resources and services.